Home > Weather > Hebron > Past weeks

Flag for Palestinian Territories Weather for the Past 2 Weeks in Hebron, West Bank, Palestinian Territories

Now
54 °F

Passing clouds.


Feels Like: 52 °F
Forecast: 35 / 50 °F
Wind: 7 mph from Southeast

Location: Ben Gurion International Airport

Current Time: Feb 8, 2016 at 9:31:35 PM

Latest Report: Feb 8, 2016 at 8:50 PM


Visibility: N/A

Pressure: 30.24 "Hg (27.17 "Hg at 894m altitude)

Humidity: 88%

Dew point: 50 °F

Location of HebronLocation

Historic Weather in Hebron — Graph

°F

Hebron Temperature Yesterday

Maximum temperature yesterday: 57 °F (at 3:20 PM)
Minimum temperature yesterday: 48 °F (at 4:20 AM)
Average temperature yesterday: 52 °F

High & Low Weather Summary for the Past Weeks

 TemperatureHumidityPressure
High75 °F (Feb 4, 2:20 PM)94% (Feb 3, 6:50 AM)30.45 "Hg (Feb 3, 6:50 AM)
Low34 °F (Jan 28, 5:50 AM)21% (Feb 4, 2:20 PM)29.92 "Hg (Feb 5, 1:20 PM)
Average52 °F71%30.20 "Hg
* Reported Jan 24 8:20 PM — Feb 8 8:20 PM, Hebron, Weather by CustomWeather, © 2016

Note: Actual official high and low records may vary slightly from our data, if they occured in-between our weather recording intervals... More about our weather records

Advertising

Hebron Weather History for the Previous 24 Hours

 ConditionsComfort  
Time TempWeatherWind HumidityBarometerVisibility
8:20 PM
Mon, Feb 8
54 °FPassing clouds.5 mph94%30.24 "HgN/A
7:50 PM54 °FPassing clouds.7 mph88%30.24 "HgN/A
7:20 PM54 °FPassing clouds.6 mph94%30.24 "HgN/A
6:50 PM54 °FLight rain. Partly cloudy.2 mph94%30.24 "HgN/A
6:20 PM55 °FPartly cloudy.3 mph88%30.24 "HgN/A
5:50 PM55 °FOvercast.2 mph82%30.24 "HgN/A
5:20 PM55 °FOvercast.3 mph82%30.24 "HgN/A
4:50 PM55 °FOvercast.7 mph82%30.21 "HgN/A
4:20 PM55 °FOvercast.5 mph82%30.21 "HgN/A
3:50 PM55 °FPartly sunny.7 mph82%30.21 "HgN/A
3:20 PM55 °FLight rain. Broken clouds.7 mph88%30.21 "HgN/A
2:50 PM55 °FPartly sunny.6 mph82%30.21 "HgN/A
2:20 PM55 °FPartly sunny.5 mph82%30.21 "Hg5 mi
1:50 PM55 °FLight rain. Broken clouds.5 mph82%30.21 "Hg5 mi
1:20 PM55 °FPartly sunny.7 mph82%30.21 "HgN/A
12:50 PM55 °FLight rain. Partly sunny.6 mph82%30.21 "HgN/A
12:20 PM55 °FPartly sunny.7 mph77%30.21 "HgN/A
11:50 AM55 °FPartly sunny.9 mph77%30.21 "HgN/A
11:20 AM54 °FPartly sunny.10 mph82%30.24 "Hg6 mi
10:50 AM54 °FPartly sunny.12 mph82%30.24 "Hg5 mi
10:20 AM54 °FLight rain. Partly sunny.15 mph88%30.24 "HgN/A
9:50 AM55 °FPassing clouds.12 mph82%30.24 "HgN/A
9:20 AM54 °FScattered clouds.13 mph82%30.21 "HgN/A
8:50 AM52 °FPartly sunny.10 mph88%30.21 "HgN/A
8:20 AM52 °FPartly sunny.9 mph88%30.21 "HgN/A
7:50 AM50 °FPartly sunny.9 mph94%30.18 "HgN/A
7:20 AM50 °FPartly sunny.7 mph94%30.18 "HgN/A
6:50 AM50 °FPartly sunny.10 mph94%30.18 "HgN/A
6:20 AM52 °FPassing clouds.8 mph88%30.18 "HgN/A
5:20 AM52 °FLight rain. Passing clouds.7 mph88%30.15 "HgN/A
4:50 AM50 °FPassing clouds.6 mph94%30.15 "HgN/A
3:50 AM50 °FPassing clouds.3 mph94%30.15 "HgN/A
3:20 AM50 °FPassing clouds.3 mph88%30.12 "HgN/A
2:50 AM50 °FPassing clouds.5 mph94%30.15 "HgN/A
2:20 AM50 °FPassing clouds.5 mph94%30.15 "HgN/A
1:50 AM50 °FPassing clouds.7 mph94%30.15 "HgN/A
1:20 AM50 °FPassing clouds.6 mph94%30.15 "HgN/A
12:50 AM50 °FPassing clouds.6 mph94%30.15 "HgN/A
12:20 AM50 °FLight rain. Passing clouds.6 mph94%30.15 "Hg6 mi
11:50 PM
Sun, Feb 7
50 °FPassing clouds.5 mph94%30.15 "HgN/A
11:20 PM50 °FLight rain. Passing clouds.9 mph94%30.15 "HgN/A
10:50 PM50 °FPassing clouds.8 mph94%30.15 "HgN/A
10:20 PM50 °FLight rain. Passing clouds.3 mph88%30.12 "HgN/A
9:50 PM50 °FPassing clouds.9 mph88%30.12 "HgN/A
9:20 PM50 °FPassing clouds.10 mph88%30.12 "HgN/A
Weather by CustomWeather, © 2016

See weather overviewHow to use our weather pages